Location: Azul
(36.7830°S, 59.8500°W)
Time: 10:50:19
(UTC-03:00)

ISS - Pass Details

Date: 29 March 2020
Orbit: 416 x 423 km, 51.6° (Epoch: 02 April)

Event Time Altitude Azimuth Distance (km) Brightness Sun altitude
Exits shadow 06:33:12 - 235° (SW) 1,794 -1.0 -8.4°
Reaches altitude 10° 06:34:38 10° 215° (SW) 1,538 -1.2 -8.1°
Maximum altitude 06:35:38 11° 198° (SSW) 1,480 -1.1 -7.9°
Drops below altitude 10° 06:36:40 10° 181° (S) 1,541 -0.9 -7.7°
Sets 06:40:14 0° 143° (SE) 2,411 0.7 -6.9°
